Regional Weather Roundup
Issued by NWS

Home | Current Version | Previous Version | Graphics & Text | Print | Product List | Glossary On
Versions: 1 2 3 4 5 6 7 8 9 10 11 12 13 14 15 16 17 18 19 20 21 22 23 24 25 26 27
000
ASUS45 KBOU 211707
RWRCO

WEATHER ROUNDUP FOR COLORADO
NATIONAL WEATHER SERVICE DENVER/BOULDER CO
1100 AM MDT MON AUG 21 2017

NOTE: "FAIR" INDICATES FEW OR NO CLOUDS BELOW 12000 FEET WITH NO
SIGNIFICANT WEATHER AND/OR OBSTRUCTIONS TO VISIBILITY.

COZ001>005-013-030-031-211800-
...NORTHWEST COLORADO...

CITY           SKY/WX    TMP DP  RH WIND       PRES   REMARKS
CRAIG          FAIR      74  41  30 CALM      30.26F
HAYDEN         FAIR      75  40  28 SE5       30.29F
MEEKER         FAIR      76  37  24 CALM      30.26S
RABBIT EARS PA FAIR      61  34  36 N3        30.57R
STEAMBOAT SPGS FAIR      69  39  34 CALM      30.30F
WALDEN         FAIR      68  37  32 CALM      30.40S
$$

COZ006>008-011-211800-
...WEST CENTRAL VALLEYS...

CITY           SKY/WX    TMP DP  RH WIND       PRES   REMARKS
GRAND JUNCTION FAIR      82  40  22 CALM      30.15S
MONTROSE       FAIR      78  42  27 VRB5      30.23F
EAGLE          FAIR      72  39  30 S3        30.30F
RIFLE          FAIR      76  40  27 VRB3      30.19F
DELTA          FAIR      81  40  23 S3        30.19S
NUCLA          FAIR      77  41  27 NW6       30.27F
$$

COZ017>023-064>068-211800-
...SOUTHWEST COLORADO...

CITY           SKY/WX    TMP DP  RH WIND       PRES   REMARKS
DURANGO        FAIR      71  43  36 SW6       30.29F
CORTEZ         FAIR      72  48  42 E3        30.25S
PAGOSA SPRINGS CLOUDY    67  38  34 CALM      30.36S
TELLURIDE      FAIR      66  37  35 SW3       30.46F
WOLF CREEK PAS FAIR      54  34  47 N5        30.67S
$$

COZ009-010-012-014-032>034-037-058>063-211800-
...CENTRAL COLORADO...

CITY           SKY/WX    TMP DP  RH WIND       PRES   REMARKS
ASPEN          FAIR      73  39  29 N6        30.34F
BUENA VISTA    FAIR      72  39  29 SE8       30.34S
COPPER MTN     FAIR      59  32  36 N3        30.67R
BERTHOUD PASS  FAIR      50  45  81 N5        30.70S
COTTONWOOD PAS FAIR      70  32  24 CALM      30.49S
GUNNISON       FAIR      67  42  40 CALM      30.35F
KREMMLING      FAIR      72  37  28 CALM      30.36F
LEADVILLE      FAIR      64  27  24 N15       30.48S
MONARCH PASS   FAIR      55  32  41 E14       30.74S
SALIDA         FAIR      74  42  32 CALM      30.38F
SUNLIGHT       FAIR      57  32  38 NW5       30.60S
WILKERSON PASS FAIR      59  32  36 NE8       30.62S
$$

COZ069>075-211800-
...SAN LUIS VALLEY/SANGRE DE CRISTO MOUNTAINS...

CITY           SKY/WX    TMP DP  RH WIND       PRES   REMARKS
ALAMOSA        FAIR      70  43  37 CALM      30.32F
DEL NORTE      FAIR      69  42  37 E3        30.36S
LA VETA PASS   NOT AVBL
SAGUACHE       FAIR      68  43  40 S6        30.35F
$$

COZ035-036-038>040-211800-
...NORTHERN COLORADO FRONT RANGE...

CITY           SKY/WX    TMP DP  RH WIND       PRES   REMARKS
DENVER INTL AP FAIR      84  39  20 NE15      30.15S
DMNS CITY PARK   N/A     82  43  25 E3G12     30.15S
AURORA         MOSUNNY   81  46  28 N6        30.18R
FRONT RANGE AP FAIR      84  37  18 N15G21    30.16S
ERIE MUNI ARPT FAIR      84  36  17 CALM      30.18S
BOULDER MUN AP FAIR      81  43  26 CALM      30.14S
CENTENNIAL     FAIR      80  41  24 NE9       30.19R
BROOMFIELD     MOSUNNY   81  45  28 CALM      30.17S
FORT COLLINS   FAIR      81  50  33 E6        30.13R
LONGMONT       FAIR      84  46  26 SE5       30.14S
$$

COZ041-046-047-076>085-087-088-211800-
...PIKES PEAK/PALMER DIVIDE AND SOUTHERN FOOTHILLS...

CITY           SKY/WX    TMP DP  RH WIND       PRES   REMARKS
COLO. SPRINGS  FAIR      79  45  29 SW10      30.21R
A. F. ACADEMY  FAIR      79  40  24 NE7       30.22R
SCHRIEVER AFB  FAIR      76  45  33 S6        30.21R
CHEYENNE MTN   NOT AVBL
ELLICOTT       NOT AVBL
FALCON         FAIR      79  40  24 NE5       30.27R
FORT CARSON    FAIR      77  47  35 S3        30.18R
LIMON          FAIR      83  47  28 N9        30.14R
MONUMENT HILL  FAIR      73  45  35 N8        30.29R
CANON CITY     SUNNY     82  48  30 E5        30.14R
WALSENBURG     FAIR      82  39  21 S6        30.18S
TRINIDAD       PTSUNNY   75  48  38 SW14      30.17F
$$

COZ042>045-048>051-090-091-211800-
...NORTHEAST COLORADO...

CITY           SKY/WX    TMP DP  RH WIND       PRES   REMARKS
GREELEY ARPT   FAIR      83  49  30 NE10      30.12R
AKRON          FAIR      80  53  39 N16       30.09R
BURLINGTON     FAIR      78  56  46 W5        30.04S
WRAY           NOT AVBL
YUMA           NOT AVBL
STERLING       FAIR      86  50  28 N16       30.03S
HOLYOKE        FAIR      81  68  65 N10       30.02S
FORT MORGAN    FAIR      86  41  20 N17G25    30.10R
$$

COZ086-089-092>099-211800-
...SOUTHEAST COLORADO...

CITY           SKY/WX    TMP DP  RH WIND       PRES   REMARKS
PUEBLO         FAIR      85  48  27 SE5       30.08S
LA JUNTA       FAIR      78  54  43 SW6       30.06S
LAMAR          FAIR      81  58  45 W5        30.02S
SPRINGFIELD      N/A     79  60  52 S20G31    30.09S
$$




USA.gov is the U.S. government's official web portal to all federal, state and local government web resources and services.